Other Public Products
Issued by NWS Grand Forks, ND

Home | Current Version | Previous Version | Graphics & Text | Print | Product List | Glossary On
Versions: 1 2 3 4 5 6 7 8 9 10 11 12 13 14 15 16 17 18 19 20 21 22 23 24 25 26 27 28 29 30 31 32 33 34 35 36 37 38 39 40 41 42 43 44 45 46 47 48 49 50
819
FPUS83 KFGF 240131
OPUFGF
PRAIRIE TO PINES WEATHER ROUNDUP
NATIONAL WEATHER SERVICE EASTERN NORTH DAKOTA/GRAND FORKS ND
800 PM CDT SUN APR 23 2017

 **SATELLITE DATA USED TO AUGMENT SKY COVER AT AUTOMATED STATIONS**
 *****  WEATHER ACROSS EASTERN NORTH DAKOTA  *****

CITY           SKY/WX    TMP DP  RH WIND       PRES   REMARKS
GRAND FORKS    MOCLDY    33  30  88 NE18G25   30.03S WCI  22
GRAND FORKS AF CLOUDY    32  28  86 E15G23    30.02F WCI  22
GRAND CITY NWS NOT AVBL
BUXTON           N/A     34  33  95 NE16        N/A  WCI  23
DEVILS LAKE    FLURRIES  28  27  93 E21G28    29.97F WCI  15
FARGO          FAIR      38  32  79 NE20G28   29.92F
WAHPETON ARPT  FAIR      43  34  70 NE18G26   29.85S
$$

 *****  WEATHER ACROSS CENTRAL AND WESTERN NORTH DAKOTA  *****

CITY           SKY/WX    TMP DP  RH WIND       PRES   REMARKS
JAMESTOWN      CLOUDY    32  30  92 NE21G31   29.88F WCI  20
BISMARCK       CLOUDY    35  32  88 NE18      29.87S WCI  24
MINOT          CLOUDY    31  27  85 E16G23    29.94F WCI  20
MINOT AFB      CLOUDY    31  27  87 E15       29.94F WCI  20
GARRISON         N/A     29  26  89 E21G28    29.89F WCI  16
WILLISTON      CLOUDY    32  28  85 E21G26    29.86F WCI  20
DICKINSON      CLOUDY    35  31  85 E16       29.76F
HETTINGER      FAIR      43  36  76 NE17      29.76F
$$

 *****  OTHER OBSERVATIONS NORTHEAST NORTH DAKOTA  *****

CITY           SKY/WX    TMP DP  RH WIND       PRES   REMARKS
WALHALLA       NOT AVBL
LANGDON        FAIR      34  18  51 E16G25    30.00F WCI  23
CAVALIER       FAIR      36  18  48 E12       30.05F
GRAFTON        MIX PCPN  32  32 100 E10       30.07S WCI  24
CANDO          NOT AVBL
FORT TOTTEN    NOT AVBL
ROLLA          CLOUDY    32  18  55 E15       29.98F WCI  22
RUGBY          NOT AVBL
 ***** THE ABOVE OBSERVATIONS ARE NON NWS ARE NOT QUALITY
        CONTROLLED AND MAY MIS-REPORT RAIN FOR SNOW...
$$

 *****  OTHER OBSERVATIONS SOUTHEAST NORTH DAKOTA *****

CITY           SKY/WX    TMP DP  RH WIND       PRES   REMARKS
COOPERSTOWN    CLOUDY    30  30 100 NE24G35   29.93F WCI  16
VALLEY CITY    CLOUDY    32  34 100 NE18G31   29.90F WCI  20
OAKES          NOT AVBL
GWINNER        CLEAR     43  36  75 MISG      29.83S
SHEYENNE NWR     N/A     41  32  70 NE15      29.95S
BUFFALO          N/A     35  28  78 SE24        N/A  WCI  22
WYNDMERE         N/A     46  37  71 NE15        N/A
 ***** THE ABOVE OBSERVATIONS ARE NON NWS ARE NOT QUALITY
       CONTROLLED AND MAY MIS-REPORT RAIN FOR SNOW...
$$

  *****  WEATHER ACROSS NORTHERN MINNESOTA  *****

CITY           SKY/WX    TMP DP  RH WIND       PRES   REMARKS
FLAG ISLAND    FAIR      36   9  32 E6        30.09S
WARROAD        FAIR      36  19  51 NE15      30.08F
ROSEAU         MOCLDY    36  19  51 E10       30.07F
HALLOCK        MOCLDY    37  16  41 E10       30.06S
THF RVR FALLS  LGT SNOW  30  28  93 E15       30.03F FOG     WCI  19
HALSTAD          N/A     35  30  82 E16         N/A
FOSSTON        CLOUDY    30  27  86 NE15G29   29.99F WCI  19
BAUDETTE       CLOUDY    36  12  37 E10       30.07F
WASKISH        LGT SNOW  30  28  93 E8        30.07F WCI  23
CROOKSTON      CLOUDY    34  28  80 E15G23    30.01F WCI  24
$$
  *****  WEATHER ACROSS CENTRAL AND WEST MINNESOTA  *****

CITY           SKY/WX    TMP DP  RH WIND       PRES   REMARKS
BEMIDJI        CLOUDY    32  29  88 NE12      30.02F WCI  23
PARK RAPIDS    CLOUDY    35  29  78 E17G26    29.96F WCI  25
WADENA         CLOUDY    37  32  81 E12G18    29.93S
DETROIT LAKES  CLOUDY    36  32  87 E15       29.93S
MOORHEAD       FAIR      37  30  75 E21G30    29.92F
FERGUS FALLS   FAIR      43  34  70 E21G29    29.84F
ELBOW LAKE     FAIR      46  37  71 NE16G28   29.84S
MORRIS MN      FAIR      54  41  62 E21G31    29.80F
STAPLES        FAIR      39  32  75 E8        29.94S
WHEATON        FAIR      52  39  62 NE17G32   29.81R
$$
  *****  WEATHER ELSEWHERE ACROSS MINNESOTA  *****

CITY           SKY/WX    TMP DP  RH WIND       PRES   REMARKS
DULUTH         MOCLDY    32  24  72 E15       30.07F WCI  22
INTRNTL FALLS  CLOUDY    37  15  40 E5        30.09F
ELY            CLOUDY    32  30  93 E3        30.10F
CLOQUET        FAIR      32  23  69 E15       30.05S WCI  22
BRAINERD       FAIR      39  32  76 NE14G24   29.97F
HIBBING        CLOUDY    33  30  88 E9        30.06F
ALEXANDRIA     FAIR      47  37  68 E16       29.88S
SAINT CLOUD    FAIR      46  38  73 NE13G23   29.91R
MINNEAPOLIS    MOCLDY    66  35  31 SE8       29.86F
$$

  *****  WEATHER ACROSS SOUTH DAKOTA  *****

CITY           SKY/WX    TMP DP  RH WIND       PRES   REMARKS
SIOUX FALLS    MOCLDY    66  33  29 S12       29.79F
BROOKINGS      FAIR      65  31  28 MISG      29.77F
WATERTOWN      FAIR      62  35  36 S9        29.75F
HURON          FAIR      69  30  23 S10       29.69F
SISSETON         N/A     57  44  62 E22G29    29.76S
ABERDEEN       FAIR      56  41  57 NE22G31   29.72R
MITCHELL       FAIR      70  27  20 S21G28    29.72F
PIERRE         FAIR      70  43  37 N3        29.60F
MOBRIDGE       FAIR      46  35  65 NE21G31   29.72R
RAPID CITY     FAIR      64  42  44 N14       29.64F
$$

  *****  SOME WEATHER IN NEARBY STATES *****

CITY           SKY/WX    TMP DP  RH WIND       PRES   REMARKS
GLASGOW MT     CLOUDY    38  29  70 E24G30    29.74F
GREAT FALLS MT FAIR      51  40  65 S7        29.69F
CHEYENNE WY    FAIR      60  29  30 S8        29.76F
SCOTTSBLUFF NE FAIR      70  29  21 S9        29.65F
OMAHA NE       MOCLDY    69  28  21 S14       29.91F
DES MOINES IA  CLOUDY    64  34  32 S7        29.97F
DAVENPORT IA   FAIR      63  32  31 S5        30.02R
CHICAGO IL     FAIR      60  28  29 SE14      30.04R
EAU CLAIRE WI  FAIR      60  41  49 E6        29.92S
LA CROSSE WI   FAIR      68  35  29 S7        29.93F
$$

  *****  SOME NATIONAL WEATHER *****

CITY           SKY/WX    TMP DP  RH WIND       PRES   REMARKS
LA GUARDIA NY  CLOUDY    52  42  69 S10       30.11R
RALEIGH NC     CLOUDY    53  50  89 E13G20    29.99S
ATLANTA GA     CLOUDY    57  55  93 E17       29.79R
NEW ORLEANS LA MOCLDY    62  48  60 N14G24    29.93R
OKLAHOMA CITY  FAIR      59  41  51 SE7       30.01F
ALBUQUERQUE NM FAIR      74  30  19 S28G38    29.88F
SALT LAKE CITY FAIR      61  35  37 NW18      29.83R
LOS ANGELES CA FAIR      65  52  62 W18G28    29.83F
BOISE ID       FAIR      60  41  49 NE8       29.77F
SEATTLE WA     LGT RAIN  49  46  90 S8        29.84S FOG
$$

*** WEATHER ACROSS MANITOBA...SASKATCHEWAN AND ONTARIO ***
                ***ONTARIO***

CITY           SKY/WX    TMP DP  RH WIND       PRES   REMARKS
GERALDTON      PTCLDY    30   9  40 N2        30.15S
THUNDER BAY    MOCLDY    34  21  60 SE8       30.19R
SIOUX LOOKOUT  MOCLDY    30  10  43 CALM      30.13S
TORONTO        PTCLDY    55  37  50 N17       30.06R
BIG TROUT LK   CLEAR     16   0  48 N10       30.25R WCI   3
PICKLE LAKE    PTCLDY    28   3  34 VRB2      30.14S
DRYDEN         CLOUDY    32   9  37 NE10      30.11F WCI  24
KENORA         MOCLDY    34  10  37 NE5       30.10F
$$
                *** MANITOBA***

CITY           SKY/WX    TMP DP  RH WIND       PRES   REMARKS
BRANDON        MOCLDY    36  21  55 E15       30.03F
DAUPHIN        CLEAR     37  19  48 SE14G22   30.07S
ISLAND LAKE    PTCLDY    25   1  36 N9        30.21  WCI  15
PILOT MOUND      N/A     36  14  41 E14         N/A
THE PAS        MOCLDY    30   3  31 E7        30.14S WCI  23
THOMPSON       CLEAR     18  -4  38 N7        30.25R WCI   8
WINNIPEG       MOCLDY    36  19  51 NE16      30.10S
LYNN LAKE      CLEAR     19   0  42 NE5       30.19S WCI  13
CHURCHILL      PTCLDY     0  -8  71 N13       30.39R WCI -18
GILLAM         PTCLDY    10  -4  52 NE3       30.31R
$$
                ***SASKATCHEWAN***

CITY           SKY/WX    TMP DP  RH WIND       PRES   REMARKS
ESTEVAN        CLOUDY    32  25  74 SE20G28   29.91F WCI  20
KINDERSLEY     LGT RAIN  32  32 100 E20       29.77F WCI  20
LLOYDMINSTER   LGT SNOW  32  32 100 E17G26    29.84F WCI  21
PRINCE ALBERT  CLOUDY    39  21  48 SE14G21   29.96F
REGINA         CLOUDY    37  16  41 E18G26    29.88F
YORKTON        MOCLDY    41  18  38 SE12G20   29.97S



USA.gov is the U.S. government's official web portal to all federal, state and local government web resources and services.